YG1CIC-13 Weather Reports


Display with metric or nautical units.
time (UTC)temp
F
wind
direction
speed
MPH
gust
MPH
rain 1hr
in
rain 24hr
in
rain mn
in
humidity
%
barometer
mb
20260504194319 79 0 0.0 0.0 0.00 0.00 0.00 100
20260504193319 79 0 0.0 0.0 0.00 0.00 0.00 100
20260504192318 79 0 0.0 0.0 0.00 0.00 0.00 100
20260504191325 79 0 0.0 0.0 0.00 0.00 0.00 100
20260504190317 79 0 0.0 0.0 0.00 0.00 0.00 100
20260504185317 79 0 0.0 0.0 0.00 0.00 0.00 100
20260504184317 79 0 0.0 0.0 0.00 0.00 0.00 100
20260504183317 79 0 0.0 0.0 0.00 0.00 0.00 99
20260504182317 79 0 0.0 0.0 0.00 0.00 0.00 100
20260504181317 79 0 0.0 0.0 0.00 0.00 0.00 100
20260504180316 79 0 0.0 0.0 0.00 0.00 0.00 100
20260504175316 79 0 0.0 0.0 0.00 0.00 0.00 100
20260504174316 79 0 0.0 0.0 0.00 0.00 0.00 100
20260504173316 79 0 0.0 0.0 0.00 0.00 0.00 100
20260504172316 79 0 0.0 0.0 0.00 0.00 0.00 100
20260504171323 79 0 0.0 0.0 0.00 0.00 0.00 100
20260504170316 79 0 0.0 0.0 0.00 0.00 0.00 100
20260504160314 79 0 0.0 0.0 0.00 0.00 0.00 100
20260504150313 79 0 0.0 0.0 0.00 0.00 0.00 100
20260504141312 79 0 0.0 0.0 0.00 0.00 0.00 100
20260504140311 79 0 0.0 0.0 0.00 0.00 0.00 100
20260504120306 79 0 0.0 0.0 0.00 0.00 0.00 100
20260504110302 79 0 0.0 0.0 0.00 0.00 0.00 99
20260504100257 79 0 0.0 0.0 0.00 0.00 0.00 100
20260504081248 89 0 0.0 0.0 0.00 0.00 0.00 79
20260504080247 90 0 0.0 0.0 0.00 0.00 0.00 80
20260504070241 91 0 0.0 0.0 0.00 0.00 0.00 80
20260504060240 87 0 0.0 0.0 0.00 0.00 0.00 81
20260504050238 88 0 0.0 0.0 0.00 0.00 0.00 86
20260504045238 90 0 0.0 0.0 0.00 0.00 0.00 80
20260504044237 91 0 0.0 0.0 0.00 0.00 0.00 75
20260504043237 92 0 0.0 0.0 0.00 0.00 0.00 73
20260504042238 94 0 0.0 0.0 0.00 0.00 0.00 69
20260504041236 97 0 0.0 0.0 0.00 0.00 0.00 59
20260504040236 98 0 0.0 0.0 0.00 0.00 0.00 58
20260504035236 99 0 0.0 0.0 0.00 0.00 0.00 57
20260504034236 100 0 0.0 0.0 0.00 0.00 0.00 57
20260504033236 98 0 0.0 0.0 0.00 0.00 0.00 59
20260504032236 100 0 0.0 0.0 0.00 0.00 0.00 58
20260504031235 98 0 0.0 0.0 0.00 0.00 0.00 59
20260504030234 98 0 0.0 0.0 0.00 0.00 0.00 60
20260504025234 101 0 0.0 0.0 0.00 0.00 0.00 56
20260504024234 98 0 0.0 0.0 0.00 0.00 0.00 59
20260504023234 100 0 0.0 0.0 0.00 0.00 0.00 57
20260504022234 105 0 0.0 0.0 0.00 0.00 0.00 52
20260504012238 99 0 0.0 0.0 0.00 0.00 0.00 61
20260504011240 98 0 0.0 0.0 0.00 0.00 0.00 62
20260504005231 87 0 0.0 0.0 0.00 0.00 0.00 80
20260504004231 85 0 0.0 0.0 0.00 0.00 0.00 84
20260504003230 85 0 0.0 0.0 0.00 0.00 0.00 86
20260504002229 84 0 0.0 0.0 0.00 0.00 0.00 87
20260504001229 83 0 0.0 0.0 0.00 0.00 0.00 90
20260504000230 82 0 0.0 0.0 0.00 0.00 0.00 92
20260503235227 81 0 0.0 0.0 0.00 0.00 0.00 92
20260503234227 81 0 0.0 0.0 0.00 0.00 0.00 93
20260503233226 81 0 0.0 0.0 0.00 0.00 0.00 94
20260503232225 81 0 0.0 0.0 0.00 0.00 0.00 95
20260503231225 80 0 0.0 0.0 0.00 0.00 0.00 90
20260503230226 80 0 0.0 0.0 0.00 0.00 0.00 92
20260503224224 80 0 0.0 0.0 0.00 0.00 0.00 92
20260503223223 80 0 0.0 0.0 0.00 0.00 0.00 93
20260503222222 81 0 0.0 0.0 0.00 0.00 0.00 93
20260503221222 80 0 0.0 0.0 0.00 0.00 0.00 91
20260503220221 81 0 0.0 0.0 0.00 0.00 0.00 93
20260503215222 81 0 0.0 0.0 0.00 0.00 0.00 90
20260503214220 81 0 0.0 0.0 0.00 0.00 0.00 92
20260503213219 81 0 0.0 0.0 0.00 0.00 0.00 90
20260503212219 81 0 0.0 0.0 0.00 0.00 0.00 90
20260503211218 81 0 0.0 0.0 0.00 0.00 0.00 89
20260503210218 81 0 0.0 0.0 0.00 0.00 0.00 90
20260503205218 81 0 0.0 0.0 0.00 0.00 0.00 90
20260503204216 81 0 0.0 0.0 0.00 0.00 0.00 86
20260503203216 82 0 0.0 0.0 0.00 0.00 0.00 88
20260503202215 82 0 0.0 0.0 0.00 0.00 0.00 89
20260503201215 82 0 0.0 0.0 0.00 0.00 0.00 89
20260503200214 82 0 0.0 0.0 0.00 0.00 0.00 90
20260503195214 82 0 0.0 0.0 0.00 0.00 0.00 88